Time,TemperatureF,DewpointF,PressureIn,WindDirection,WindDirectionDegrees,WindSpeedMPH,WindSpeedGustMPH,Humidity,HourlyPrecipIn,Conditions,Clouds,dailyrainin,SoftwareType,DateUTC
2014-07-31 00:00:00,76.8,63.7,29.95,N/A,-737280,0.0,0.0,64,0.00,,,0.00,Wunderground v.1.12,2014-07-31 05:00:00,
2014-07-31 00:05:00,76.8,63.7,29.95,N/A,-737280,0.0,0.0,64,0.00,,,0.00,Wunderground v.1.12,2014-07-31 05:05:00,
2014-07-31 00:10:00,76.7,63.6,29.95,N/A,-737280,0.0,0.0,64,0.00,,,0.00,Wunderground v.1.12,2014-07-31 05:10:00,
2014-07-31 00:15:00,76.7,64.0,29.95,N/A,-737280,0.0,0.0,65,0.00,,,0.00,Wunderground v.1.12,2014-07-31 05:15:00,
2014-07-31 00:20:00,76.6,64.0,29.95,N/A,-737280,0.0,0.0,65,0.00,,,0.00,Wunderground v.1.12,2014-07-31 05:20:00,
2014-07-31 00:25:00,76.5,63.9,29.95,N/A,-737280,0.0,0.0,65,0.00,,,0.00,Wunderground v.1.12,2014-07-31 05:25:00,
2014-07-31 00:30:00,76.4,63.8,29.95,N/A,-737280,0.0,0.0,65,0.00,,,0.00,Wunderground v.1.12,2014-07-31 05:30:00,
2014-07-31 00:35:00,76.3,64.1,29.95,N/A,-737280,0.0,0.0,66,0.00,,,0.00,Wunderground v.1.12,2014-07-31 05:35:00,
2014-07-31 00:40:00,76.1,64.3,29.95,N/A,-737280,0.0,0.0,67,0.00,,,0.00,Wunderground v.1.12,2014-07-31 05:40:00,
2014-07-31 00:45:00,76.0,64.2,29.94,N/A,-737280,0.0,0.0,67,0.00,,,0.00,Wunderground v.1.12,2014-07-31 05:45:00,
2014-07-31 00:50:00,75.8,64.1,29.94,N/A,-737280,0.0,0.0,67,0.00,,,0.00,Wunderground v.1.12,2014-07-31 05:50:00,
2014-07-31 00:55:00,75.7,64.0,29.94,N/A,-737280,0.0,0.0,67,0.00,,,0.00,Wunderground v.1.12,2014-07-31 05:55:00,
2014-07-31 01:00:00,75.6,63.9,29.94,N/A,-737280,0.0,0.0,67,0.00,,,0.00,Wunderground v.1.12,2014-07-31 06:00:00,
2014-07-31 01:05:00,75.5,63.8,29.94,N/A,-737280,0.0,0.0,67,0.00,,,0.00,Wunderground v.1.12,2014-07-31 06:05:00,
2014-07-31 01:10:00,75.4,63.7,29.94,N/A,-737280,0.0,0.0,67,0.00,,,0.00,Wunderground v.1.12,2014-07-31 06:10:00,
2014-07-31 01:15:00,75.4,64.1,29.94,N/A,-737280,0.0,0.0,68,0.00,,,0.00,Wunderground v.1.12,2014-07-31 06:15:00,
2014-07-31 01:20:00,75.3,64.0,29.94,N/A,-737280,0.0,0.0,68,0.00,,,0.00,Wunderground v.1.12,2014-07-31 06:20:00,
2014-07-31 01:25:00,75.3,64.4,29.94,N/A,-737280,0.0,0.0,69,0.00,,,0.00,Wunderground v.1.12,2014-07-31 06:25:00,
2014-07-31 01:30:00,75.2,64.3,29.94,N/A,-737280,0.0,0.0,69,0.00,,,0.00,Wunderground v.1.12,2014-07-31 06:30:00,
2014-07-31 01:35:00,75.1,64.2,29.94,N/A,-737280,0.0,0.0,69,0.00,,,0.00,Wunderground v.1.12,2014-07-31 06:35:00,
2014-07-31 01:40:00,75.1,64.2,29.94,N/A,-737280,0.0,0.0,69,0.00,,,0.00,Wunderground v.1.12,2014-07-31 06:40:00,
2014-07-31 01:45:00,75.0,64.1,29.94,N/A,-737280,0.0,0.0,69,0.00,,,0.00,Wunderground v.1.12,2014-07-31 06:45:00,
2014-07-31 01:50:00,74.9,64.5,29.94,N/A,-737280,0.0,0.0,70,0.00,,,0.00,Wunderground v.1.12,2014-07-31 06:50:00,
2014-07-31 01:55:00,74.9,64.5,29.94,N/A,-737280,0.0,0.0,70,0.00,,,0.00,Wunderground v.1.12,2014-07-31 06:55:00,
2014-07-31 02:00:00,74.8,64.4,29.94,N/A,-737280,0.0,0.0,70,0.00,,,0.00,Wunderground v.1.12,2014-07-31 07:00:00,
2014-07-31 02:05:00,74.8,64.8,29.94,N/A,-737280,0.0,0.0,71,0.00,,,0.00,Wunderground v.1.12,2014-07-31 07:05:00,
2014-07-31 02:10:00,74.7,64.7,29.94,N/A,-737280,0.0,0.0,71,0.00,,,0.00,Wunderground v.1.12,2014-07-31 07:10:00,
2014-07-31 02:15:00,74.7,64.7,29.94,N/A,-737280,0.0,0.0,71,0.00,,,0.00,Wunderground v.1.12,2014-07-31 07:15:00,
2014-07-31 02:20:00,74.6,64.6,29.94,N/A,-737280,0.0,0.0,71,0.00,,,0.00,Wunderground v.1.12,2014-07-31 07:20:00,
2014-07-31 02:25:00,74.4,64.4,29.94,N/A,-737280,0.0,0.0,71,0.00,,,0.00,Wunderground v.1.12,2014-07-31 07:25:00,
2014-07-31 02:30:00,74.3,63.9,29.93,N/A,-737280,0.0,0.0,70,0.00,,,0.00,Wunderground v.1.12,2014-07-31 07:30:00,
2014-07-31 02:35:00,74.3,63.9,29.93,N/A,-737280,0.0,0.0,70,0.00,,,0.00,Wunderground v.1.12,2014-07-31 07:35:00,
2014-07-31 02:40:00,74.2,64.2,29.93,N/A,-737280,0.0,0.0,71,0.00,,,0.00,Wunderground v.1.12,2014-07-31 07:40:00,
2014-07-31 02:45:00,74.2,64.2,29.93,N/A,-737280,0.0,0.0,71,0.00,,,0.00,Wunderground v.1.12,2014-07-31 07:45:00,
2014-07-31 02:50:00,74.1,64.1,29.93,N/A,-737280,0.0,0.0,71,0.00,,,0.00,Wunderground v.1.12,2014-07-31 07:50:00,
2014-07-31 02:55:00,74.1,64.1,29.93,N/A,-737280,0.0,0.0,71,0.00,,,0.00,Wunderground v.1.12,2014-07-31 07:55:00,
2014-07-31 03:00:00,74.0,64.0,29.93,N/A,-737280,0.0,0.0,71,0.00,,,0.00,Wunderground v.1.12,2014-07-31 08:00:00,
2014-07-31 03:05:00,73.9,64.3,29.93,N/A,-737280,0.0,0.0,72,0.00,,,0.00,Wunderground v.1.12,2014-07-31 08:05:00,
2014-07-31 03:10:00,73.9,64.3,29.93,N/A,-737280,0.0,0.0,72,0.00,,,0.00,Wunderground v.1.12,2014-07-31 08:10:00,
2014-07-31 03:15:00,73.7,64.1,29.93,N/A,-737280,0.0,0.0,72,0.00,,,0.00,Wunderground v.1.12,2014-07-31 08:15:00,
2014-07-31 03:20:00,73.5,64.3,29.93,N/A,-737280,0.0,0.0,73,0.00,,,0.00,Wunderground v.1.12,2014-07-31 08:20:00,
2014-07-31 03:25:00,73.4,64.2,29.93,N/A,-737280,0.0,0.0,73,0.00,,,0.00,Wunderground v.1.12,2014-07-31 08:25:00,
2014-07-31 03:30:00,73.3,64.1,29.92,N/A,-737280,0.0,0.0,73,0.00,,,0.00,Wunderground v.1.12,2014-07-31 08:30:00,
2014-07-31 03:35:00,73.1,63.5,29.92,N/A,-737280,0.0,0.0,72,0.00,,,0.00,Wunderground v.1.12,2014-07-31 08:35:00,
2014-07-31 03:40:00,73.1,63.5,29.92,NNE,23,0.0,1.0,72,0.00,,,0.00,Wunderground v.1.12,2014-07-31 08:40:00,
2014-07-31 03:45:00,73.0,63.8,29.93,N/A,-737280,0.0,0.0,73,0.00,,,0.00,Wunderground v.1.12,2014-07-31 08:45:00,
2014-07-31 03:50:00,73.0,63.8,29.93,N/A,-737280,0.0,0.0,73,0.00,,,0.00,Wunderground v.1.12,2014-07-31 08:50:00,
2014-07-31 03:55:00,72.9,63.7,29.93,NNE,23,0.0,3.0,73,0.00,,,0.00,Wunderground v.1.12,2014-07-31 08:55:00,
2014-07-31 04:00:00,72.9,63.7,29.93,NNW,338,0.0,1.0,73,0.00,,,0.00,Wunderground v.1.12,2014-07-31 09:00:00,
2014-07-31 04:05:00,72.8,64.0,29.93,N/A,-737280,0.0,0.0,74,0.00,,,0.00,Wunderground v.1.12,2014-07-31 09:05:00,
2014-07-31 04:10:00,72.7,63.9,29.93,North,0,0.0,3.0,74,0.00,,,0.00,Wunderground v.1.12,2014-07-31 09:10:00,
2014-07-31 04:15:00,72.6,64.2,29.93,NNE,23,0.0,3.0,75,0.00,,,0.00,Wunderground v.1.12,2014-07-31 09:15:00,
2014-07-31 04:20:00,72.5,64.1,29.93,North,0,0.0,1.0,75,0.00,,,0.00,Wunderground v.1.12,2014-07-31 09:20:00,
2014-07-31 04:25:00,72.4,64.0,29.93,N/A,-737280,0.0,0.0,75,0.00,,,0.00,Wunderground v.1.12,2014-07-31 09:25:00,
2014-07-31 04:30:00,72.3,64.3,29.93,N/A,-737280,0.0,0.0,76,0.00,,,0.00,Wunderground v.1.12,2014-07-31 09:30:00,
2014-07-31 04:35:00,72.2,64.2,29.93,N/A,-737280,0.0,0.0,76,0.00,,,0.00,Wunderground v.1.12,2014-07-31 09:35:00,
2014-07-31 04:40:00,72.2,64.2,29.93,N/A,-737280,0.0,0.0,76,0.00,,,0.00,Wunderground v.1.12,2014-07-31 09:40:00,
2014-07-31 04:45:00,72.1,64.1,29.94,N/A,-737280,0.0,0.0,76,0.00,,,0.00,Wunderground v.1.12,2014-07-31 09:45:00,
2014-07-31 04:50:00,72.0,64.4,29.94,N/A,-737280,0.0,0.0,77,0.00,,,0.00,Wunderground v.1.12,2014-07-31 09:50:00,
2014-07-31 04:55:00,72.0,64.4,29.94,N/A,-737280,0.0,0.0,77,0.00,,,0.00,Wunderground v.1.12,2014-07-31 09:55:00,
2014-07-31 05:00:00,71.9,64.3,29.94,N/A,-737280,0.0,0.0,77,0.00,,,0.00,Wunderground v.1.12,2014-07-31 10:00:00,
2014-07-31 05:05:00,71.9,64.3,29.94,North,0,0.0,2.0,77,0.00,,,0.00,Wunderground v.1.12,2014-07-31 10:05:00,
2014-07-31 05:10:00,71.9,64.3,29.94,NNE,23,0.0,2.0,77,0.00,,,0.00,Wunderground v.1.12,2014-07-31 10:10:00,
2014-07-31 05:15:00,71.9,64.7,29.94,NNE,23,0.0,2.0,78,0.00,,,0.00,Wunderground v.1.12,2014-07-31 10:15:00,
2014-07-31 05:20:00,72.0,64.8,29.94,North,0,0.0,1.0,78,0.00,,,0.00,Wunderground v.1.12,2014-07-31 10:20:00,
2014-07-31 05:25:00,71.9,64.7,29.94,N/A,-737280,0.0,0.0,78,0.00,,,0.00,Wunderground v.1.12,2014-07-31 10:25:00,
2014-07-31 05:30:00,71.9,64.7,29.94,N/A,-737280,0.0,0.0,78,0.00,,,0.00,Wunderground v.1.12,2014-07-31 10:30:00,
2014-07-31 05:35:00,71.9,64.7,29.94,N/A,-737280,0.0,0.0,78,0.00,,,0.00,Wunderground v.1.12,2014-07-31 10:35:00,
2014-07-31 05:40:00,71.9,64.7,29.94,N/A,-737280,0.0,0.0,78,0.00,,,0.00,Wunderground v.1.12,2014-07-31 10:40:00,
2014-07-31 05:45:00,71.8,64.2,29.94,NE,45,0.0,1.0,77,0.00,,,0.00,Wunderground v.1.12,2014-07-31 10:45:00,
2014-07-31 05:50:00,71.7,64.1,29.94,N/A,-737280,0.0,0.0,77,0.00,,,0.00,Wunderground v.1.12,2014-07-31 10:50:00,
2014-07-31 05:55:00,71.7,64.1,29.94,N/A,-737280,0.0,0.0,77,0.00,,,0.00,Wunderground v.1.12,2014-07-31 10:55:00,
2014-07-31 06:00:00,71.7,64.1,29.95,N/A,-737280,0.0,0.0,77,0.00,,,0.00,Wunderground v.1.12,2014-07-31 11:00:00,
2014-07-31 06:05:00,71.7,64.1,29.95,N/A,-737280,0.0,0.0,77,0.00,,,0.00,Wunderground v.1.12,2014-07-31 11:05:00,
2014-07-31 06:10:00,71.6,64.0,29.95,N/A,-737280,0.0,0.0,77,0.00,,,0.00,Wunderground v.1.12,2014-07-31 11:10:00,
2014-07-31 06:15:00,71.6,64.0,29.95,N/A,-737280,0.0,0.0,77,0.00,,,0.00,Wunderground v.1.12,2014-07-31 11:15:00,
2014-07-31 06:20:00,71.6,64.4,29.95,N/A,-737280,0.0,0.0,78,0.00,,,0.00,Wunderground v.1.12,2014-07-31 11:20:00,
2014-07-31 06:25:00,71.6,64.4,29.95,N/A,-737280,0.0,0.0,78,0.00,,,0.00,Wunderground v.1.12,2014-07-31 11:25:00,
2014-07-31 06:30:00,71.5,64.3,29.95,N/A,-737280,0.0,0.0,78,0.00,,,0.00,Wunderground v.1.12,2014-07-31 11:30:00,
2014-07-31 06:35:00,71.5,64.3,29.95,N/A,-737280,0.0,0.0,78,0.00,,,0.00,Wunderground v.1.12,2014-07-31 11:35:00,
2014-07-31 06:40:00,71.5,64.3,29.95,N/A,-737280,0.0,0.0,78,0.00,,,0.00,Wunderground v.1.12,2014-07-31 11:40:00,
2014-07-31 06:45:00,71.3,63.7,29.95,N/A,-737280,0.0,0.0,77,0.00,,,0.00,Wunderground v.1.12,2014-07-31 11:45:00,
2014-07-31 06:50:00,71.4,63.8,29.95,N/A,-737280,0.0,0.0,77,0.00,,,0.00,Wunderground v.1.12,2014-07-31 11:50:00,
2014-07-31 06:55:00,71.6,64.0,29.95,N/A,-737280,0.0,0.0,77,0.00,,,0.00,Wunderground v.1.12,2014-07-31 11:55:00,
2014-07-31 07:00:00,72.0,64.4,29.96,N/A,-737280,0.0,0.0,77,0.00,,,0.00,Wunderground v.1.12,2014-07-31 12:00:00,
2014-07-31 07:05:00,72.3,64.3,29.96,NE,45,0.0,2.0,76,0.00,,,0.00,Wunderground v.1.12,2014-07-31 12:05:00,
2014-07-31 07:10:00,72.6,64.2,29.96,NE,45,0.0,2.0,75,0.00,,,0.00,Wunderground v.1.12,2014-07-31 12:10:00,
2014-07-31 07:15:00,72.9,64.5,29.96,N/A,-737280,0.0,0.0,75,0.00,,,0.00,Wunderground v.1.12,2014-07-31 12:15:00,
2014-07-31 07:20:00,73.2,64.4,29.96,NNE,23,0.0,1.0,74,0.00,,,0.00,Wunderground v.1.12,2014-07-31 12:20:00,
2014-07-31 07:25:00,73.4,64.6,29.96,N/A,-737280,0.0,0.0,74,0.00,,,0.00,Wunderground v.1.12,2014-07-31 12:25:00,
2014-07-31 07:30:00,73.6,64.4,29.96,N/A,-737280,0.0,0.0,73,0.00,,,0.00,Wunderground v.1.12,2014-07-31 12:30:00,
2014-07-31 07:35:00,73.7,64.5,29.96,N/A,-737280,0.0,0.0,73,0.00,,,0.00,Wunderground v.1.12,2014-07-31 12:35:00,
2014-07-31 07:40:00,73.9,64.3,29.96,N/A,-737280,0.0,0.0,72,0.00,,,0.00,Wunderground v.1.12,2014-07-31 12:40:00,
2014-07-31 07:45:00,74.2,64.6,29.97,N/A,-737280,0.0,0.0,72,0.00,,,0.00,Wunderground v.1.12,2014-07-31 12:45:00,
2014-07-31 07:50:00,74.3,64.7,29.97,N/A,-737280,0.0,0.0,72,0.00,,,0.00,Wunderground v.1.12,2014-07-31 12:50:00,
2014-07-31 07:55:00,74.6,64.6,29.97,N/A,-737280,0.0,0.0,71,0.00,,,0.00,Wunderground v.1.12,2014-07-31 12:55:00,
2014-07-31 08:00:00,74.8,63.9,29.97,N/A,-737280,0.0,0.0,69,0.00,,,0.00,Wunderground v.1.12,2014-07-31 13:00:00,
2014-07-31 08:05:00,74.9,63.6,29.97,N/A,-737280,0.0,0.0,68,0.00,,,0.00,Wunderground v.1.12,2014-07-31 13:05:00,
2014-07-31 08:10:00,75.2,63.9,29.97,N/A,-737280,0.0,0.0,68,0.00,,,0.00,Wunderground v.1.12,2014-07-31 13:10:00,
2014-07-31 08:15:00,75.6,64.3,29.98,N/A,-737280,0.0,0.0,68,0.00,,,0.00,Wunderground v.1.12,2014-07-31 13:15:00,
2014-07-31 08:20:00,76.0,64.2,29.98,N/A,-737280,0.0,0.0,67,0.00,,,0.00,Wunderground v.1.12,2014-07-31 13:20:00,
2014-07-31 08:25:00,76.3,64.1,29.98,N/A,-737280,0.0,0.0,66,0.00,,,0.00,Wunderground v.1.12,2014-07-31 13:25:00,
2014-07-31 08:30:00,76.5,63.0,29.97,N/A,-737280,0.0,0.0,63,0.00,,,0.00,Wunderground v.1.12,2014-07-31 13:30:00,
2014-07-31 08:35:00,76.7,63.6,29.97,N/A,-737280,0.0,0.0,64,0.00,,,0.00,Wunderground v.1.12,2014-07-31 13:35:00,
2014-07-31 08:40:00,77.0,63.0,29.97,N/A,-737280,0.0,0.0,62,0.00,,,0.00,Wunderground v.1.12,2014-07-31 13:40:00,
2014-07-31 08:45:00,77.4,63.8,29.97,N/A,-737280,0.0,0.0,63,0.00,,,0.00,Wunderground v.1.12,2014-07-31 13:45:00,
2014-07-31 08:50:00,77.7,63.6,29.97,N/A,-737280,0.0,0.0,62,0.00,,,0.00,Wunderground v.1.12,2014-07-31 13:50:00,
2014-07-31 08:55:00,78.0,63.0,29.97,N/A,-737280,0.0,0.0,60,0.00,,,0.00,Wunderground v.1.12,2014-07-31 13:55:00,
2014-07-31 09:00:00,78.5,63.5,29.97,N/A,-737280,0.0,0.0,60,0.00,,,0.00,Wunderground v.1.12,2014-07-31 14:00:00,
2014-07-31 09:05:00,78.8,63.3,29.97,N/A,-737280,0.0,0.0,59,0.00,,,0.00,Wunderground v.1.12,2014-07-31 14:05:00,
2014-07-31 09:10:00,79.2,63.6,29.97,N/A,-737280,0.0,0.0,59,0.00,,,0.00,Wunderground v.1.12,2014-07-31 14:10:00,
2014-07-31 09:15:00,79.4,62.8,29.98,N/A,-737280,0.0,0.0,57,0.00,,,0.00,Wunderground v.1.12,2014-07-31 14:15:00,
2014-07-31 09:20:00,79.4,62.8,29.98,N/A,-737280,0.0,0.0,57,0.00,,,0.00,Wunderground v.1.12,2014-07-31 14:20:00,
2014-07-31 09:25:00,79.6,63.5,29.98,N/A,-737280,0.0,0.0,58,0.00,,,0.00,Wunderground v.1.12,2014-07-31 14:25:00,
2014-07-31 09:30:00,79.7,62.6,29.98,N/A,-737280,0.0,0.0,56,0.00,,,0.00,Wunderground v.1.12,2014-07-31 14:30:00,
2014-07-31 09:35:00,79.8,62.7,29.98,N/A,-737280,0.0,0.0,56,0.00,,,0.00,Wunderground v.1.12,2014-07-31 14:35:00,
2014-07-31 09:40:00,80.0,63.4,29.98,N/A,-737280,0.0,0.0,57,0.00,,,0.00,Wunderground v.1.12,2014-07-31 14:40:00,
2014-07-31 09:45:00,80.1,63.0,29.98,N/A,-737280,0.0,0.0,56,0.00,,,0.00,Wunderground v.1.12,2014-07-31 14:45:00,
2014-07-31 09:50:00,80.3,63.2,29.98,N/A,-737280,0.0,0.0,56,0.00,,,0.00,Wunderground v.1.12,2014-07-31 14:50:00,
2014-07-31 09:55:00,80.3,62.7,29.98,N/A,-737280,0.0,0.0,55,0.00,,,0.00,Wunderground v.1.12,2014-07-31 14:55:00,
2014-07-31 10:00:00,80.4,62.2,29.98,N/A,-737280,0.0,0.0,54,0.00,,,0.00,Wunderground v.1.12,2014-07-31 15:00:00,
2014-07-31 10:05:00,80.5,62.8,29.98,NNE,23,0.0,4.0,55,0.00,,,0.00,Wunderground v.1.12,2014-07-31 15:05:00,
2014-07-31 10:10:00,80.7,62.5,29.98,NNE,23,1.0,5.0,54,0.00,,,0.00,Wunderground v.1.12,2014-07-31 15:10:00,
2014-07-31 10:15:00,81.0,62.8,29.98,ENE,68,0.0,3.0,54,0.00,,,0.00,Wunderground v.1.12,2014-07-31 15:15:00,
2014-07-31 10:20:00,81.4,64.2,29.98,NW,315,0.0,3.0,56,0.00,,,0.00,Wunderground v.1.12,2014-07-31 15:20:00,
2014-07-31 10:25:00,81.3,60.3,29.98,NW,315,1.0,5.0,49,0.00,,,0.00,Wunderground v.1.12,2014-07-31 15:25:00,
2014-07-31 10:30:00,81.5,63.3,29.98,NNE,23,1.0,4.0,54,0.00,,,0.00,Wunderground v.1.12,2014-07-31 15:30:00,
2014-07-31 10:35:00,81.4,61.0,29.98,NE,45,2.0,6.0,50,0.00,,,0.00,Wunderground v.1.12,2014-07-31 15:35:00,
2014-07-31 10:40:00,81.5,60.5,29.98,North,0,1.0,5.0,49,0.00,,,0.00,Wunderground v.1.12,2014-07-31 15:40:00,
2014-07-31 10:45:00,81.6,62.3,29.98,NW,315,0.0,2.0,52,0.00,,,0.00,Wunderground v.1.12,2014-07-31 15:45:00,
2014-07-31 10:50:00,82.1,62.2,29.98,NE,45,0.0,3.0,51,0.00,,,0.00,Wunderground v.1.12,2014-07-31 15:50:00,
2014-07-31 10:55:00,82.1,58.7,29.98,North,0,0.0,2.0,45,0.00,,,0.00,Wunderground v.1.12,2014-07-31 15:55:00,
2014-07-31 11:00:00,82.3,60.6,29.98,NNE,23,0.0,3.0,48,0.00,,,0.00,Wunderground v.1.12,2014-07-31 16:00:00,
2014-07-31 11:05:00,82.5,59.0,29.98,NNE,23,0.0,4.0,45,0.00,,,0.00,Wunderground v.1.12,2014-07-31 16:05:00,
2014-07-31 11:15:00,83.8,63.2,29.98,SW,225,2.0,7.0,50,0.00,,,0.00,Wunderground v.1.12,2014-07-31 16:15:00,
2014-07-31 11:18:00,83.8,62.6,29.98,SSW,209,3.0,6.0,49,0.00,,,0.00,Wunderground v.1.12,2014-07-31 16:18:00,
2014-07-31 11:23:00,83.4,62.8,29.98,South,186,4.0,4.0,50,0.00,,,0.00,Wunderground v.1.12,2014-07-31 16:23:00,
2014-07-31 11:33:00,83.1,63.7,29.97,SSW,209,3.0,3.0,52,0.00,,,0.00,Wunderground v.1.12,2014-07-31 16:33:00,
2014-07-31 11:38:00,83.4,63.9,29.97,SW,219,2.0,4.0,52,0.00,,,0.00,Wunderground v.1.12,2014-07-31 16:38:00,
2014-07-31 11:48:00,83.2,64.3,29.97,South,170,3.0,3.0,53,0.00,,,0.00,Wunderground v.1.12,2014-07-31 16:48:00,
2014-07-31 11:53:00,83.5,64.6,29.97,SSW,198,2.0,2.0,53,0.00,,,0.00,Wunderground v.1.12,2014-07-31 16:53:00,
2014-07-31 11:58:00,83.6,64.7,29.97,SSW,204,2.0,3.0,53,0.00,,,0.00,Wunderground v.1.12,2014-07-31 16:58:00,
2014-07-31 12:08:00,83.1,63.7,29.97,SW,220,3.0,4.0,52,0.00,,,0.00,Wunderground v.1.12,2014-07-31 17:08:00,
2014-07-31 12:13:00,83.1,63.1,29.97,WSW,257,4.0,5.0,51,0.00,,,0.00,Wunderground v.1.12,2014-07-31 17:13:00,
2014-07-31 12:23:00,82.8,63.9,29.97,SW,227,5.0,7.0,53,0.00,,,0.00,Wunderground v.1.12,2014-07-31 17:23:00,
2014-07-31 12:33:00,83.3,63.8,29.97,South,187,3.0,5.0,52,0.00,,,0.00,Wunderground v.1.12,2014-07-31 17:33:00,
2014-07-31 12:35:00,83.5,64.6,29.97,SSW,203,2.0,9.0,53,0.00,,,0.00,Wunderground v.1.12,2014-07-31 17:35:00,
2014-07-31 12:38:00,83.8,64.3,29.97,SSW,195,3.0,3.0,52,0.00,,,0.00,Wunderground v.1.12,2014-07-31 17:38:00,
2014-07-31 12:48:00,84.1,63.5,29.97,SSW,209,3.0,3.0,50,0.00,,,0.00,Wunderground v.1.12,2014-07-31 17:48:00,
2014-07-31 12:53:00,84.2,64.1,29.97,SSW,207,3.0,5.0,51,0.00,,,0.00,Wunderground v.1.12,2014-07-31 17:53:00,
2014-07-31 12:58:00,84.3,63.1,29.97,SSW,200,3.0,9.0,49,0.00,,,0.00,Wunderground v.1.12,2014-07-31 17:58:00,
2014-07-31 13:08:00,84.4,63.7,29.96,SSW,195,3.0,4.0,50,0.00,,,0.00,Wunderground v.1.12,2014-07-31 18:08:00,
2014-07-31 13:13:00,84.6,62.7,29.96,South,173,2.0,5.0,48,0.00,,,0.00,Wunderground v.1.12,2014-07-31 18:13:00,
2014-07-31 13:23:00,84.6,62.1,29.97,South,175,3.0,5.0,47,0.00,,,0.00,Wunderground v.1.12,2014-07-31 18:23:00,
2014-07-31 13:28:00,84.4,62.0,29.97,SSW,213,3.0,5.0,47,0.00,,,0.00,Wunderground v.1.12,2014-07-31 18:28:00,
2014-07-31 13:38:00,84.5,62.1,29.97,SW,219,3.0,3.0,47,0.00,,,0.00,Wunderground v.1.12,2014-07-31 18:38:00,
2014-07-31 13:43:00,84.4,62.6,29.97,SSE,157,3.0,5.0,48,0.00,,,0.00,Wunderground v.1.12,2014-07-31 18:43:00,
2014-07-31 13:48:00,84.4,62.0,29.97,South,180,4.0,8.0,47,0.00,,,0.00,Wunderground v.1.12,2014-07-31 18:48:00,
2014-07-31 13:53:00,84.4,62.0,29.96,South,182,3.0,3.0,47,0.00,,,0.00,Wunderground v.1.12,2014-07-31 18:53:00,
2014-07-31 13:58:00,84.6,61.5,29.96,SSW,213,2.0,2.0,46,0.00,,,0.00,Wunderground v.1.12,2014-07-31 18:58:00,
2014-07-31 14:08:00,84.4,61.4,29.96,SSW,212,3.0,3.0,46,0.00,,,0.00,Wunderground v.1.12,2014-07-31 19:08:00,
2014-07-31 14:18:00,84.5,62.7,29.96,SW,225,3.0,9.0,48,0.00,,,0.00,Wunderground v.1.12,2014-07-31 19:18:00,
2014-07-31 14:23:00,84.5,61.4,29.96,SW,234,3.0,3.0,46,0.00,,,0.00,Wunderground v.1.12,2014-07-31 19:23:00,
2014-07-31 14:28:00,84.4,62.6,29.96,SSW,200,2.0,2.0,48,0.00,,,0.00,Wunderground v.1.12,2014-07-31 19:28:00,
2014-07-31 14:38:00,84.1,61.7,29.95,SSW,205,4.0,7.0,47,0.00,,,0.00,Wunderground v.1.12,2014-07-31 19:38:00,
2014-07-31 14:43:00,84.0,62.2,29.95,SW,232,5.0,5.0,48,0.00,,,0.00,Wunderground v.1.12,2014-07-31 19:43:00,
2014-07-31 14:48:00,84.1,61.1,29.95,SSW,203,5.0,11.0,46,0.00,,,0.00,Wunderground v.1.12,2014-07-31 19:48:00,
2014-07-31 14:58:00,83.7,62.5,29.95,SW,219,4.0,4.0,49,0.00,,,0.00,Wunderground v.1.12,2014-07-31 19:58:00,
2014-07-31 15:08:00,83.7,63.1,29.94,SSW,206,4.0,7.0,50,0.00,,,0.00,Wunderground v.1.12,2014-07-31 20:08:00,
2014-07-31 15:13:00,83.5,62.3,29.94,SW,229,5.0,5.0,49,0.00,,,0.00,Wunderground v.1.12,2014-07-31 20:13:00,
2014-07-31 15:18:00,83.7,63.7,29.94,SSW,203,4.0,11.0,51,0.00,,,0.00,Wunderground v.1.12,2014-07-31 20:18:00,
2014-07-31 15:28:00,84.1,62.9,29.94,SW,234,3.0,10.0,49,0.00,,,0.00,Wunderground v.1.12,2014-07-31 20:28:00,
2014-07-31 15:33:00,84.1,62.9,29.93,SW,225,3.0,10.0,49,0.00,,,0.00,Wunderground v.1.12,2014-07-31 20:33:00,
2014-07-31 15:38:00,84.1,63.5,29.93,SSW,209,4.0,4.0,50,0.00,,,0.00,Wunderground v.1.12,2014-07-31 20:38:00,
2014-07-31 15:48:00,84.1,63.5,29.93,SW,225,3.0,10.0,50,0.00,,,0.00,Wunderground v.1.12,2014-07-31 20:48:00,
2014-07-31 15:53:00,84.2,62.4,29.93,SW,233,4.0,5.0,48,0.00,,,0.00,Wunderground v.1.12,2014-07-31 20:53:00,
2014-07-31 15:58:00,84.2,63.5,29.93,SW,215,3.0,5.0,50,0.00,,,0.00,Wunderground v.1.12,2014-07-31 20:58:00,
2014-07-31 16:08:00,84.4,63.2,29.93,WSW,240,3.0,3.0,49,0.00,,,0.00,Wunderground v.1.12,2014-07-31 21:08:00,
2014-07-31 16:18:00,84.4,63.7,29.92,SW,225,3.0,10.0,50,0.00,,,0.00,Wunderground v.1.12,2014-07-31 21:18:00,
2014-07-31 16:23:00,84.0,62.8,29.93,WSW,242,4.0,4.0,49,0.00,,,0.00,Wunderground v.1.12,2014-07-31 21:23:00,
2014-07-31 16:28:00,84.0,63.9,29.93,WSW,244,3.0,3.0,51,0.00,,,0.00,Wunderground v.1.12,2014-07-31 21:28:00,
2014-07-31 16:38:00,83.9,63.8,29.92,SW,232,3.0,5.0,51,0.00,,,0.00,Wunderground v.1.12,2014-07-31 21:38:00,
2014-07-31 16:43:00,84.0,63.9,29.92,WSW,238,3.0,6.0,51,0.00,,,0.00,Wunderground v.1.12,2014-07-31 21:43:00,
2014-07-31 16:48:00,83.9,63.3,29.92,SW,225,2.0,7.0,50,0.00,,,0.00,Wunderground v.1.12,2014-07-31 21:48:00,
2014-07-31 16:53:00,83.9,64.4,29.92,WSW,238,4.0,9.0,52,0.00,,,0.00,Wunderground v.1.12,2014-07-31 21:53:00,
2014-07-31 16:58:00,84.0,64.5,29.92,SW,227,3.0,3.0,52,0.00,,,0.00,Wunderground v.1.12,2014-07-31 21:58:00,